Seminole, TX

6:32 AM CDT on April 25, 2017 (GMT -0500)
Seminole

Weather History for KGNC - April, 2013

Change the Weather History Date:

Monday, April 29, 2013

  Actual Average (KHOB) Record (KHOB)
Temperature  
Mean Temperature 70 °F -  
Max Temperature 88 °F 79 °F 96 °F (2002)
Min Temperature 51 °F 50 °F 35 °F (2015)
Cooling Degree Days 4    
Growing Degree Days 20 (Base 50)    
Moisture  
Dew Point 38 °F    
Average Humidity 36    
Maximum Humidity 73    
Minimum Humidity 13    
Precipitation  
Precipitation 0.00 in - - ()
Sea Level Pressure  
Sea Level Pressure 29.87 in    
Wind  
Wind Speed 10 mph (SSW)    
Max Wind Speed 16 mph    
Max Gust Speed 31 mph    
Visibility 10 miles    
Events      
Averages and records for this station are not official NWS values.
T = Trace of Precipitation, MM = Missing Value Source: NWS Daily Summary

Daily Weather History Graph

Daily Weather History Graph

Search for Another Location

Airport or City:

Trip Planner

Search our weather history database for the weather conditions in past years. The results will help you decide how hot, cold, wet, or windy it might be!

Date:

Astronomy

Apr. 29, 2013 Rise Set
Actual Time 7:05 AM CDT 8:30 PM CDT
Civil Twilight 6:39 AM CDT 8:57 PM CDT
Nautical Twilight 6:08 AM CDT 9:28 PM CDT
Astronomical Twilight 5:35 AM CDT 10:01 PM CDT
Moon No Moon Rise 10:33 AM CDT (4/29)
Length of Visible Light 14h 17m
Length of Day
13h 25m
Waning Gibbous, 80% of the Moon is Illuminated
Apr 29
Waning Gibbous
May 2
Last Quarter
May 9
New
May 17
First Quarter
May 24
Full

Hourly Weather History & Observations

Time (CDT) Temp. Dew Point Humidity Pressure Visibility Wind Dir Wind Speed Gust Speed Precip Events Conditions
12:15 AM 60.8 °F 35.2 °F 38% 29.91 in 10.0 mi South 6.9 mph - N/A   Clear
12:35 AM 62.6 °F 37.4 °F 39% 29.92 in 10.0 mi South 10.4 mph - N/A   Clear
12:55 AM 62.1 °F 39.2 °F 43% 29.93 in 10.0 mi South 10.4 mph - N/A   Clear
1:15 AM 61.7 °F 41.0 °F 47% 29.93 in 10.0 mi South 9.2 mph - N/A   Clear
1:35 AM 60.8 °F 42.4 °F 51% 29.94 in 10.0 mi SSW 9.2 mph - N/A   Clear
1:55 AM 60.1 °F 43.3 °F 54% 29.93 in 10.0 mi SSW 8.1 mph - N/A   Clear
2:15 AM 59.4 °F 43.7 °F 56% 29.93 in 10.0 mi SSW 6.9 mph - N/A   Clear
2:35 AM 58.1 °F 43.3 °F 58% 29.93 in 10.0 mi SSW 5.8 mph - N/A   Clear
2:55 AM 57.4 °F 43.2 °F 59% 29.94 in 10.0 mi South 8.1 mph - N/A   Clear
3:15 AM 57.9 °F 43.2 °F 58% 29.94 in 10.0 mi SSW 6.9 mph - N/A   Clear
3:35 AM 56.1 °F 42.8 °F 61% 29.94 in 10.0 mi SSW 6.9 mph - N/A   Clear
3:55 AM 55.6 °F 42.8 °F 62% 29.94 in 10.0 mi SSW 6.9 mph - N/A   Clear
4:15 AM 55.8 °F 43.7 °F 64% 29.95 in 10.0 mi SSW 8.1 mph - N/A   Clear
4:35 AM 55.4 °F 43.7 °F 65% 29.94 in 10.0 mi SSW 6.9 mph - N/A   Clear
4:55 AM 54.5 °F 43.7 °F 67% 29.94 in 10.0 mi SSW 6.9 mph - N/A   Clear
5:15 AM 53.8 °F 43.5 °F 68% 29.94 in 10.0 mi SSW 6.9 mph - N/A   Clear
5:35 AM 53.2 °F 43.3 °F 69% 29.93 in 10.0 mi SW 5.8 mph - N/A   Clear
5:55 AM 52.9 °F 43.3 °F 70% 29.93 in 10.0 mi SSW 4.6 mph - N/A   Clear
6:15 AM 52.5 °F 43.2 °F 70% 29.93 in 10.0 mi SSW 5.8 mph - N/A   Clear
6:35 AM 52.7 °F 43.3 °F 70% 29.94 in 10.0 mi WSW 5.8 mph - N/A   Clear
6:55 AM 51.6 °F 43.2 °F 73% 29.94 in 10.0 mi WSW 5.8 mph - N/A   Clear
7:15 AM 52.2 °F 43.7 °F 73% 29.94 in 10.0 mi WSW 5.8 mph - N/A   Clear
7:35 AM 52.9 °F 44.4 °F 73% 29.93 in 10.0 mi WSW 6.9 mph - N/A   Clear
7:55 AM 54.0 °F 44.8 °F 71% 29.94 in 10.0 mi SSW 6.9 mph - N/A   Clear
8:15 AM 55.4 °F 45.5 °F 69% 29.94 in 10.0 mi South 6.9 mph - N/A   Clear
8:35 AM 58.5 °F 46.6 °F 65% 29.94 in 10.0 mi South 9.2 mph - N/A   Clear
8:55 AM 61.7 °F 46.4 °F 57% 29.94 in 10.0 mi SW 10.4 mph - N/A   Clear
9:15 AM 63.9 °F 45.7 °F 52% 29.94 in 10.0 mi SW 11.5 mph - N/A   Clear
9:35 AM 66.6 °F 45.7 °F 47% 29.94 in 10.0 mi SSW 8.1 mph - N/A   Clear
9:55 AM 69.6 °F 43.9 °F 39% 29.93 in 10.0 mi SW 13.8 mph - N/A   Clear
10:15 AM 72.9 °F 42.4 °F 33% 29.93 in 10.0 mi SW 13.8 mph - N/A   Clear
10:35 AM 75.4 °F 41.4 °F 29% 29.92 in 10.0 mi SW 11.5 mph 19.6 mph N/A   Clear
10:55 AM 77.4 °F 39.4 °F 26% 29.92 in 10.0 mi SSW 13.8 mph - N/A   Clear
11:15 AM 79.5 °F 37.8 °F 22% 29.92 in 10.0 mi South 13.8 mph 19.6 mph N/A   Clear
11:35 AM 80.6 °F 37.0 °F 21% 29.92 in 10.0 mi South 13.8 mph 20.7 mph N/A   Clear
11:55 AM 81.5 °F 36.7 °F 20% 29.91 in 10.0 mi SSW 15.0 mph 20.7 mph N/A   Clear
12:15 PM 82.2 °F 36.0 °F 19% 29.91 in 10.0 mi SW 16.1 mph 21.9 mph N/A   Clear
12:35 PM 83.3 °F 35.8 °F 18% 29.90 in 10.0 mi SW 16.1 mph 20.7 mph N/A   Clear
12:55 PM 83.8 °F 35.1 °F 17% 29.89 in 10.0 mi SSW 15.0 mph - N/A   Clear
1:15 PM 84.0 °F 33.3 °F 16% 29.89 in 10.0 mi SSW 13.8 mph 20.7 mph N/A   Clear
1:35 PM 84.9 °F 32.5 °F 15% 29.88 in 10.0 mi South 12.7 mph 16.1 mph N/A   Clear
1:55 PM 85.6 °F 33.1 °F 15% 29.87 in 10.0 mi South 11.5 mph 17.3 mph N/A   Clear
2:15 PM 86.2 °F 32.0 °F 14% 29.86 in 10.0 mi SW 13.8 mph 18.4 mph N/A   Clear
2:35 PM 87.1 °F 33.8 °F 15% 29.85 in 10.0 mi SSE 13.8 mph - N/A   Clear
2:55 PM 88.0 °F 33.4 °F 14% 29.84 in 10.0 mi South 15.0 mph 27.6 mph N/A   Clear
3:15 PM 87.1 °F 33.4 °F 15% 29.83 in 10.0 mi South 11.5 mph 23.0 mph N/A   Clear
3:35 PM 86.9 °F 33.1 °F 15% 29.82 in 10.0 mi SSW 8.1 mph 19.6 mph N/A   Clear
3:55 PM 87.3 °F 33.3 °F 15% 29.81 in 10.0 mi SSE 15.0 mph 21.9 mph N/A   Clear
4:15 PM 87.8 °F 32.9 °F 14% 29.81 in 10.0 mi SSE 16.1 mph 31.1 mph N/A   Clear
4:35 PM 87.6 °F 32.2 °F 14% 29.80 in 10.0 mi South 11.5 mph 20.7 mph N/A   Clear
4:55 PM 87.4 °F 31.8 °F 14% 29.79 in 10.0 mi South 10.4 mph 20.7 mph N/A   Clear
5:15 PM 87.6 °F 31.8 °F 14% 29.78 in 10.0 mi South 15.0 mph 20.7 mph N/A   Clear
5:35 PM 87.6 °F 31.3 °F 13% 29.78 in 10.0 mi SSW 12.7 mph 17.3 mph N/A   Clear
5:55 PM 87.8 °F 31.5 °F 13% 29.77 in 10.0 mi South 11.5 mph 19.6 mph N/A   Clear
6:15 PM 86.9 °F 31.1 °F 13% 29.77 in 10.0 mi South 12.7 mph 18.4 mph N/A   Clear
6:35 PM 86.9 °F 30.9 °F 13% 29.76 in 10.0 mi South 11.5 mph 18.4 mph N/A   Clear
6:55 PM 86.2 °F 30.2 °F 13% 29.76 in 10.0 mi South 12.7 mph 17.3 mph N/A   Clear
7:15 PM 85.3 °F 30.0 °F 14% 29.75 in 10.0 mi SSE 12.7 mph 17.3 mph N/A   Clear
7:35 PM 84.6 °F 30.0 °F 14% 29.75 in 10.0 mi South 11.5 mph 17.3 mph N/A   Clear
7:55 PM 83.3 °F 29.7 °F 14% 29.75 in 10.0 mi SSE 11.5 mph - N/A   Clear
8:15 PM 81.7 °F 29.7 °F 15% 29.75 in 10.0 mi South 11.5 mph - N/A   Clear
8:35 PM 79.3 °F 29.7 °F 16% 29.74 in 10.0 mi South 9.2 mph - N/A   Clear
8:55 PM 76.8 °F 30.4 °F 18% 29.75 in 10.0 mi South 8.1 mph - N/A   Clear
9:15 PM 75.2 °F 31.1 °F 20% 29.75 in 10.0 mi South 8.1 mph - N/A   Clear
9:35 PM 73.9 °F 32.0 °F 21% 29.76 in 10.0 mi South 10.4 mph - N/A   Clear
9:55 PM 73.8 °F 34.0 °F 23% 29.76 in 10.0 mi South 10.4 mph - N/A   Clear
10:15 PM 72.9 °F 35.8 °F 26% 29.77 in 10.0 mi South 10.4 mph - N/A   Clear
10:35 PM 72.5 °F 36.9 °F 27% 29.77 in 10.0 mi South 10.4 mph - N/A   Clear
10:55 PM 72.5 °F 37.9 °F 28% 29.77 in 10.0 mi South 12.7 mph - N/A   Clear
11:15 PM 72.3 °F 39.7 °F 31% 29.78 in 10.0 mi South 15.0 mph 20.7 mph N/A   Clear
11:35 PM 71.4 °F 41.9 °F 34% 29.78 in 10.0 mi South 13.8 mph - N/A   Clear
11:55 PM 70.7 °F 44.1 °F 38% 29.78 in 10.0 mi South 13.8 mph 19.6 mph N/A   Clear